MIDAS 5 DEB, 18603

Orbit data source: Space-Track

MIDAS 5 DEB, 18603 is space debris in LEO originally from a launch on Mon, 09 Apr 1962 UTC via an ATLAS AGENA B launch vehicle from the Air Force Western Test Range (AFWTR). Debris objects in space refer to the collection of defunct objects orbiting the Earth. Examples of debris include non-operational satellites, rocket bodies, and fragments generated from explosions, collisions, or faulty payload assembly.

Loading next visibility...
Identifier
18603, 1962-010G
Orbit
LEO
Country
Flag of USUS
Related business
Manufacturer
MIT-LL
Mission
Spacecraft
Bus & Motor
WESTFORD DRAG, Unknown motor
Mass
~1 kg wet, ~1 kg dry
Launch date (UTC)
1962-04-09 (64 years ago)
Launch vehicle
ATLAS AGENA B
Launch site
Air Force Western Test Range (AFWTR)
Object type
Payload
Rocket body
Debris
Shape & HBR
Unknown
Radar Cross Section
Medium (>0.1 m² and <1 m²)

Expand to show TLE details & history
Last TLE update: 2 weeks ago

TLE from 2 weeks ago
0 MIDAS 5 DEB
1 18603U 62010G   26059.73533974 -.00000012  00000-0 -31825-2 0  9996
2 18603  86.6982 341.8205 0284967 195.0113 189.1752  9.41008241368344
Epoch: 2026-02-28T17:38Z
TLE epoch observation values (Epoch: 2026-02-28T17:38:53.353Z)
Latitude
23.65514°
Longitude
-80.01275°
Altitude
3,368.108 km
Speed
6.307 km/s
True Right ascension
22h 53m 03s
True Declination
23° 33' 46"
Sunlit
Object was in daylight at epoch
Visualization orbit readout
Latitude
Unknown
Longitude
Unknown
Altitude
Unknown
Speed
Unknown
Apparent Right ascension
Unknown
Apparent Declination
Unknown
Sunlit
N/A
Visualization observer readout
Local Sidereal Time
01:29:31
Azimuth
Unknown
Elevation
Unknown
Doppler factor
Unknown
Orbital elements
Apogee altitude
3,366.609 km
Perigee altitude
2,826.611 km
Semi-major axis
9,474.747 km
Eccentricity
0.0285
Inclination
86.6982°
RAAN
341.8205°
Arg. of periapsis
195.0113°
True anomaly
188.67222°
Mean anomaly
189.1752°
Eccentric anomaly
188.92198°
Mean motion
2.35338 °/min
Orbital period
152.97 mins
BSTAR
-0.0031825
Loading maneuver chart data...
Computing Atmospheric mass density...
Loading historical data...
Loading historical data...
Loading historical data...
Loading historical data...
Loading historical data...
Loading historical data...
Loading historical data...

Documentation

Showing up to 5 results
|